{"data":{"norad_id":56883,"epoch":"2026-09-20T20:57:59.421024Z","epoch_age_seconds":85259,"freshness":"FRESH","line1":"1 56883U 23083H   26263.87360441  .00001275  00000+0  55838-4 0  9995","line2":"2 56883  43.0031  62.6890 0001196 271.6950  88.3765 15.27586351181483","mean_motion":15.27586351,"eccentricity":0.0001196,"inclination_deg":43.0031,"raan_deg":62.689,"arg_perigee_deg":271.695,"mean_anomaly_deg":88.3765,"bstar":5.5838e-5,"rev_number":18148,"period_min":94.266356795957,"perigee_km":482.20948334414,"apogee_km":483.85067450942,"semimajor_km":6861.1670789268,"source":"CELESTRAK","updated_at":"2026-09-21T09:00:33.520737Z"}}